Time,TemperatureF,DewpointF,PressureIn,WindDirection,WindDirectionDegrees,WindSpeedMPH,WindSpeedGustMPH,Humidity,HourlyPrecipIn,Conditions,Clouds,dailyrainin,SoftwareType,DateUTC
2013-01-14 00:00:00,67.7,65.0,30.15,South,181,0.0,0.0,91,0.00,,---,0.00,VWS V14.01,2013-01-14 05:00:00,
2013-01-14 00:01:00,67.1,64.4,30.15,South,181,0.0,0.0,91,0.00,,---,0.00,VWS V14.01,2013-01-14 05:01:00,
2013-01-14 00:06:00,67.5,64.9,30.15,South,181,0.0,0.0,91,0.00,,---,0.00,VWS V14.01,2013-01-14 05:06:00,
2013-01-14 00:11:00,67.1,64.6,30.15,South,180,0.0,0.0,92,0.00,,---,0.00,VWS V14.01,2013-01-14 05:11:00,
2013-01-14 00:16:00,67.0,64.7,30.15,SSW,204,0.8,1.1,92,0.00,,---,0.00,VWS V14.01,2013-01-14 05:16:00,
2013-01-14 00:21:00,67.1,64.8,30.15,SW,214,0.0,0.0,92,0.00,,---,0.00,VWS V14.01,2013-01-14 05:21:00,
2013-01-14 00:26:00,67.1,64.9,30.15,SSW,202,0.0,0.0,93,0.00,,---,0.00,VWS V14.01,2013-01-14 05:26:00,
2013-01-14 00:31:00,66.4,64.3,30.15,SSW,194,0.0,0.0,93,0.00,,---,0.00,VWS V14.01,2013-01-14 05:31:00,
2013-01-14 00:36:00,66.1,64.2,30.15,SW,218,0.0,0.0,94,0.00,,---,0.00,VWS V14.01,2013-01-14 05:36:00,
2013-01-14 00:41:00,66.5,64.6,30.15,SW,218,0.0,0.0,94,0.00,,---,0.00,VWS V14.01,2013-01-14 05:41:00,
2013-01-14 00:46:00,66.0,64.2,30.15,SW,218,0.0,0.0,94,0.00,,---,0.00,VWS V14.01,2013-01-14 05:46:00,
2013-01-14 00:51:00,66.3,64.7,30.16,South,186,0.0,0.0,94,0.00,,---,0.00,VWS V14.01,2013-01-14 05:51:00,
2013-01-14 00:56:00,65.7,64.1,30.15,SSW,212,0.0,0.0,95,0.00,,---,0.00,VWS V14.01,2013-01-14 05:56:00,
2013-01-14 01:01:00,65.9,64.5,30.15,SSW,207,0.0,0.0,95,0.00,,---,0.00,VWS V14.01,2013-01-14 06:01:00,
2013-01-14 01:06:00,65.4,64.0,30.15,SSW,207,0.0,0.0,95,0.00,,---,0.00,VWS V14.01,2013-01-14 06:06:00,
2013-01-14 01:11:00,65.4,64.1,30.15,SSW,207,0.0,0.0,96,0.00,,---,0.00,VWS V14.01,2013-01-14 06:11:00,
2013-01-14 01:16:00,65.4,64.1,30.15,SSW,207,0.0,0.0,96,0.00,,---,0.00,VWS V14.01,2013-01-14 06:16:00,
2013-01-14 01:21:00,65.1,63.9,30.15,SSW,207,0.0,0.0,96,0.00,,---,0.00,VWS V14.01,2013-01-14 06:21:00,
2013-01-14 01:26:00,65.3,64.1,30.15,SSW,207,0.0,0.0,96,0.00,,---,0.00,VWS V14.01,2013-01-14 06:26:00,
2013-01-14 01:31:00,65.0,64.0,30.16,SSW,207,0.0,0.0,97,0.00,,---,0.00,VWS V14.01,2013-01-14 06:31:00,
2013-01-14 01:36:00,65.2,64.2,30.16,SSW,207,0.0,0.0,97,0.00,,---,0.00,VWS V14.01,2013-01-14 06:36:00,
2013-01-14 01:41:00,65.6,64.7,30.16,SSW,207,0.0,0.0,97,0.00,,---,0.00,VWS V14.01,2013-01-14 06:41:00,
2013-01-14 01:46:00,65.0,64.1,30.16,SSW,207,0.0,0.0,97,0.00,,---,0.00,VWS V14.01,2013-01-14 06:46:00,
2013-01-14 01:51:00,65.4,64.6,30.16,SSW,207,0.0,0.0,97,0.00,,---,0.00,VWS V14.01,2013-01-14 06:51:00,
2013-01-14 01:56:00,65.2,64.4,30.16,SSW,207,0.0,0.0,97,0.00,,---,0.00,VWS V14.01,2013-01-14 06:56:00,
2013-01-14 02:01:00,64.7,63.9,30.16,SSW,207,0.0,0.0,97,0.00,,---,0.00,VWS V14.01,2013-01-14 07:01:00,
2013-01-14 02:06:00,64.6,63.8,30.16,SSW,207,0.0,0.0,97,0.00,,---,0.00,VWS V14.01,2013-01-14 07:06:00,
2013-01-14 02:11:00,64.1,63.4,30.16,SSW,207,0.0,0.0,98,0.00,,---,0.00,VWS V14.01,2013-01-14 07:11:00,
2013-01-14 02:16:00,64.6,64.0,30.16,SSW,207,0.0,0.0,98,0.00,,---,0.00,VWS V14.01,2013-01-14 07:16:00,
2013-01-14 02:21:00,64.8,64.2,30.16,SSW,207,0.0,0.0,98,0.00,,---,0.00,VWS V14.01,2013-01-14 07:21:00,
2013-01-14 02:26:00,64.6,64.0,30.16,SSW,207,0.0,0.0,98,0.00,,---,0.00,VWS V14.01,2013-01-14 07:26:00,
2013-01-14 02:31:00,64.6,64.1,30.16,SSW,207,0.0,0.0,98,0.00,,---,0.00,VWS V14.01,2013-01-14 07:31:00,
2013-01-14 02:36:00,64.6,64.1,30.16,SSW,207,0.0,0.0,98,0.00,,---,0.00,VWS V14.01,2013-01-14 07:36:00,
2013-01-14 02:41:00,64.9,64.4,30.16,SSW,207,0.0,0.0,98,0.00,,---,0.00,VWS V14.01,2013-01-14 07:41:00,
2013-01-14 02:46:00,64.1,63.7,30.17,SSW,207,0.0,0.0,99,0.00,,---,0.00,VWS V14.01,2013-01-14 07:46:00,
2013-01-14 02:51:00,64.9,64.5,30.17,SSW,207,0.0,0.0,98,0.00,,---,0.00,VWS V14.01,2013-01-14 07:51:00,
2013-01-14 02:56:00,64.9,64.5,30.17,SSW,207,0.0,0.0,99,0.00,,---,0.00,VWS V14.01,2013-01-14 07:56:00,
2013-01-14 03:01:00,65.1,64.8,30.17,SSW,207,0.0,0.0,99,0.00,,---,0.00,VWS V14.01,2013-01-14 08:01:00,
2013-01-14 03:06:00,65.4,65.1,30.17,SSW,207,0.0,0.0,99,0.00,,---,0.00,VWS V14.01,2013-01-14 08:06:00,
2013-01-14 03:11:00,65.2,64.9,30.17,SSW,207,0.0,0.0,99,0.00,,---,0.00,VWS V14.01,2013-01-14 08:11:00,
2013-01-14 03:16:00,65.1,64.8,30.17,SSW,207,0.0,0.0,99,0.00,,---,0.00,VWS V14.01,2013-01-14 08:16:00,
2013-01-14 03:21:00,65.3,65.0,30.16,SSW,207,0.0,0.0,99,0.00,,---,0.00,VWS V14.01,2013-01-14 08:21:00,
2013-01-14 03:26:00,65.3,65.0,30.16,SSW,207,0.0,0.0,99,0.00,,---,0.00,VWS V14.01,2013-01-14 08:26:00,
2013-01-14 03:31:00,65.2,64.9,30.16,SSW,212,0.7,1.6,99,0.00,,---,0.00,VWS V14.01,2013-01-14 08:31:00,
2013-01-14 03:36:00,64.7,64.4,30.16,SSW,198,0.0,0.0,99,0.00,,---,0.00,VWS V14.01,2013-01-14 08:36:00,
2013-01-14 03:41:00,64.9,64.7,30.16,SSW,198,0.0,0.0,99,0.00,,---,0.00,VWS V14.01,2013-01-14 08:41:00,
2013-01-14 03:46:00,65.0,64.8,30.16,SSW,198,0.0,0.0,99,0.00,,---,0.00,VWS V14.01,2013-01-14 08:46:00,
2013-01-14 03:51:00,65.2,65.0,30.16,SSW,198,0.0,0.0,99,0.00,,---,0.00,VWS V14.01,2013-01-14 08:51:00,
2013-01-14 03:56:00,64.6,64.4,30.16,SSW,198,0.0,0.0,99,0.00,,---,0.00,VWS V14.01,2013-01-14 08:56:00,
2013-01-14 04:01:00,64.0,63.8,30.16,SSW,198,0.0,0.0,99,0.00,,---,0.00,VWS V14.01,2013-01-14 09:01:00,
2013-01-14 04:06:00,64.6,64.4,30.16,SSW,198,0.0,0.0,99,0.00,,---,0.00,VWS V14.01,2013-01-14 09:06:00,
2013-01-14 06:04:00,62.8,62.8,30.15,SSW,198,0.0,0.0,100,0.00,,---,0.00,VWS V14.01,2013-01-14 11:04:00,
2013-01-14 06:09:00,63.0,63.0,30.15,SSW,198,0.0,0.0,100,0.00,,---,0.00,VWS V14.01,2013-01-14 11:09:00,
2013-01-14 06:14:00,62.9,62.9,30.15,SSW,198,0.0,0.0,100,0.00,,---,0.00,VWS V14.01,2013-01-14 11:14:00,
2013-01-14 06:19:00,62.1,62.1,30.15,SSW,198,0.0,0.0,100,0.00,,---,0.00,VWS V14.01,2013-01-14 11:19:00,
2013-01-14 06:24:00,62.9,62.9,30.15,SSW,198,0.0,0.0,100,0.00,,---,0.00,VWS V14.01,2013-01-14 11:24:00,
2013-01-14 06:29:00,62.1,62.1,30.15,SSW,198,0.0,0.0,100,0.00,,---,0.00,VWS V14.01,2013-01-14 11:29:00,
2013-01-14 06:34:00,62.9,62.9,30.15,SSW,198,0.0,0.0,100,0.00,,---,0.00,VWS V14.01,2013-01-14 11:34:00,
2013-01-14 06:39:00,63.1,63.1,30.15,SSW,198,0.0,0.0,100,0.00,,---,0.00,VWS V14.01,2013-01-14 11:39:00,
2013-01-14 06:44:00,63.4,63.4,30.15,SSW,198,0.0,0.0,100,0.00,,---,0.00,VWS V14.01,2013-01-14 11:44:00,
2013-01-14 06:49:00,63.3,63.3,30.15,SSW,198,0.0,0.0,100,0.00,,---,0.00,VWS V14.01,2013-01-14 11:49:00,
2013-01-14 06:54:00,63.0,63.0,30.16,SSW,198,0.0,0.0,100,0.00,,---,0.00,VWS V14.01,2013-01-14 11:54:00,
2013-01-14 06:59:00,63.3,63.3,30.16,SSW,198,0.0,0.0,100,0.00,,---,0.00,VWS V14.01,2013-01-14 11:59:00,
2013-01-14 07:04:00,62.7,62.7,30.16,SSW,198,0.0,0.0,100,0.00,,---,0.00,VWS V14.01,2013-01-14 12:04:00,
2013-01-14 07:09:00,62.3,62.3,30.16,SSW,198,0.0,0.0,100,0.00,,---,0.00,VWS V14.01,2013-01-14 12:09:00,
2013-01-14 07:14:00,61.9,61.9,30.16,SSW,198,0.0,0.0,100,0.00,,---,0.00,VWS V14.01,2013-01-14 12:14:00,
2013-01-14 07:19:00,61.7,61.7,30.16,SSW,198,0.0,0.0,100,0.00,,---,0.00,VWS V14.01,2013-01-14 12:19:00,
2013-01-14 07:24:00,61.7,61.7,30.16,SSW,198,0.0,0.0,100,0.00,,---,0.00,VWS V14.01,2013-01-14 12:24:00,
2013-01-14 07:29:00,62.3,62.3,30.17,SSW,198,0.0,0.0,100,0.00,,---,0.00,VWS V14.01,2013-01-14 12:29:00,
2013-01-14 07:34:00,61.8,61.8,30.17,SSW,198,0.0,0.0,100,0.00,,---,0.00,VWS V14.01,2013-01-14 12:34:00,
2013-01-14 07:39:00,62.0,62.0,30.17,SSW,198,0.0,0.0,100,0.00,,---,0.00,VWS V14.01,2013-01-14 12:39:00,
2013-01-14 07:44:00,62.0,62.0,30.17,SSW,198,0.0,0.0,100,0.00,,---,0.00,VWS V14.01,2013-01-14 12:44:00,
2013-01-14 07:49:00,62.6,62.6,30.17,SSW,198,0.0,0.0,100,0.00,,---,0.00,VWS V14.01,2013-01-14 12:49:00,
2013-01-14 07:54:00,62.2,62.2,30.18,SSW,198,0.0,0.0,100,0.00,,---,0.00,VWS V14.01,2013-01-14 12:54:00,
2013-01-14 07:59:00,62.6,62.6,30.18,SSW,198,0.0,0.0,100,0.00,,---,0.00,VWS V14.01,2013-01-14 12:59:00,
2013-01-14 08:04:00,62.5,62.5,30.18,SSW,198,0.0,0.0,100,0.00,,---,0.00,VWS V14.01,2013-01-14 13:04:00,
2013-01-14 08:09:00,62.2,62.2,30.18,SSW,198,0.0,0.0,100,0.00,,---,0.00,VWS V14.01,2013-01-14 13:09:00,
2013-01-14 08:14:00,62.9,62.9,30.18,SSW,198,0.0,0.0,100,0.00,,---,0.00,VWS V14.01,2013-01-14 13:14:00,
2013-01-14 08:19:00,62.0,62.0,30.18,SSW,198,0.0,0.0,100,0.00,,---,0.00,VWS V14.01,2013-01-14 13:19:00,
2013-01-14 08:24:00,63.0,63.0,30.18,SSW,198,0.0,0.0,100,0.00,,---,0.00,VWS V14.01,2013-01-14 13:24:00,
2013-01-14 08:29:00,62.6,62.6,30.18,SSW,198,0.0,0.0,100,0.00,,---,0.00,VWS V14.01,2013-01-14 13:29:00,
2013-01-14 08:34:00,63.0,63.0,30.18,SSW,198,0.0,0.0,100,0.00,,---,0.00,VWS V14.01,2013-01-14 13:34:00,
2013-01-14 08:39:00,63.1,63.1,30.18,SSW,198,0.0,0.0,100,0.00,,---,0.00,VWS V14.01,2013-01-14 13:39:00,
2013-01-14 08:44:00,63.5,63.5,30.18,SSW,198,0.0,0.0,100,0.00,,---,0.00,VWS V14.01,2013-01-14 13:44:00,
2013-01-14 08:49:00,63.2,63.2,30.18,SSW,198,0.0,0.0,100,0.00,,---,0.00,VWS V14.01,2013-01-14 13:49:00,
2013-01-14 08:54:00,63.9,63.9,30.18,SSW,198,0.0,0.0,100,0.00,,---,0.00,VWS V14.01,2013-01-14 13:54:00,
2013-01-14 08:59:00,64.4,64.4,30.19,SSW,198,0.0,0.0,100,0.00,,---,0.00,VWS V14.01,2013-01-14 13:59:00,
2013-01-14 09:04:00,64.8,64.8,30.19,SW,232,0.0,0.0,100,0.00,,---,0.00,VWS V14.01,2013-01-14 14:04:00,
2013-01-14 09:09:00,65.7,65.7,30.19,SW,232,0.0,0.0,100,0.00,,---,0.00,VWS V14.01,2013-01-14 14:09:00,
2013-01-14 09:14:00,65.6,65.6,30.19,SW,232,0.0,0.0,100,0.00,,---,0.00,VWS V14.01,2013-01-14 14:14:00,
2013-01-14 09:19:00,66.1,66.1,30.19,SW,232,0.0,0.0,100,0.00,,---,0.00,VWS V14.01,2013-01-14 14:19:00,
2013-01-14 09:24:00,65.8,65.8,30.20,SW,215,0.0,0.0,100,0.00,,---,0.00,VWS V14.01,2013-01-14 14:24:00,
2013-01-14 09:29:00,67.0,67.0,30.20,SSW,208,2.0,3.9,100,0.00,,---,0.00,VWS V14.01,2013-01-14 14:29:00,
2013-01-14 09:34:00,67.4,67.3,30.19,SSW,211,1.6,4.0,100,0.00,,---,0.00,VWS V14.01,2013-01-14 14:34:00,
2013-01-14 09:39:00,67.7,67.2,30.20,ENE,66,1.4,4.7,98,0.00,,---,0.00,VWS V14.01,2013-01-14 14:39:00,
2013-01-14 09:44:00,68.7,67.7,30.20,SSE,156,2.2,2.2,97,0.00,,---,0.00,VWS V14.01,2013-01-14 14:44:00,
2013-01-14 09:49:00,69.6,68.1,30.20,SE,129,5.4,7.4,95,0.00,,---,0.00,VWS V14.01,2013-01-14 14:49:00,
2013-01-14 09:54:00,70.0,67.3,30.19,SSE,165,6.0,6.0,91,0.00,,---,0.00,VWS V14.01,2013-01-14 14:54:00,
2013-01-14 09:59:00,71.7,67.8,30.18,SSE,155,4.4,8.6,88,0.00,,---,0.00,VWS V14.01,2013-01-14 14:59:00,
2013-01-14 10:04:00,71.8,67.2,30.19,SSE,158,5.5,5.7,85,0.00,,---,0.00,VWS V14.01,2013-01-14 15:04:00,
2013-01-14 10:09:00,73.1,67.7,30.19,ESE,121,6.8,7.7,83,0.00,,---,0.00,VWS V14.01,2013-01-14 15:09:00,
2013-01-14 10:14:00,73.8,67.3,30.19,SSE,167,2.6,9.0,80,0.00,,---,0.00,VWS V14.01,2013-01-14 15:14:00,
2013-01-14 10:19:00,73.5,66.3,30.19,SE,136,5.2,6.6,78,0.00,,---,0.00,VWS V14.01,2013-01-14 15:19:00,
2013-01-14 10:24:00,73.6,66.0,30.20,SE,136,1.1,3.7,77,0.00,,---,0.00,VWS V14.01,2013-01-14 15:24:00,
2013-01-14 10:29:00,74.7,66.1,30.20,SE,124,1.9,6.4,74,0.00,,---,0.00,VWS V14.01,2013-01-14 15:29:00,
2013-01-14 10:34:00,74.7,65.4,30.20,SSE,150,4.7,6.0,73,0.00,,---,0.00,VWS V14.01,2013-01-14 15:34:00,
2013-01-14 10:39:00,75.0,64.3,30.20,South,188,6.1,8.4,69,0.00,,---,0.00,VWS V14.01,2013-01-14 15:39:00,
2013-01-14 10:44:00,75.9,65.4,30.19,SE,138,7.3,7.8,70,0.00,,---,0.00,VWS V14.01,2013-01-14 15:44:00,
2013-01-14 10:49:00,75.7,64.4,30.19,SSE,160,4.2,6.3,68,0.00,,---,0.00,VWS V14.01,2013-01-14 15:49:00,
2013-01-14 10:54:00,76.4,64.4,30.19,East,93,3.4,3.4,66,0.00,,---,0.00,VWS V14.01,2013-01-14 15:54:00,
2013-01-14 10:59:00,77.0,64.6,30.19,SSE,159,3.0,4.2,66,0.00,,---,0.00,VWS V14.01,2013-01-14 15:59:00,
2013-01-14 11:04:00,76.2,63.4,30.18,SSE,160,4.0,6.2,65,0.00,,---,0.00,VWS V14.01,2013-01-14 16:04:00,
2013-01-14 11:09:00,77.7,64.2,30.18,SE,124,5.1,6.5,63,0.00,,---,0.00,VWS V14.01,2013-01-14 16:09:00,
2013-01-14 11:14:00,77.7,63.8,30.18,South,176,6.7,7.0,62,0.00,,---,0.00,VWS V14.01,2013-01-14 16:14:00,
2013-01-14 11:19:00,77.7,63.2,30.18,SSE,167,4.8,6.5,61,0.00,,---,0.00,VWS V14.01,2013-01-14 16:19:00,
2013-01-14 11:24:00,78.5,64.0,30.18,SE,136,4.7,8.0,61,0.00,,---,0.00,VWS V14.01,2013-01-14 16:24:00,
2013-01-14 11:29:00,78.2,63.6,30.18,South,184,8.9,9.6,61,0.00,,---,0.00,VWS V14.01,2013-01-14 16:29:00,
2013-01-14 11:34:00,78.7,63.6,30.18,SSE,153,2.9,7.5,60,0.00,,---,0.00,VWS V14.01,2013-01-14 16:34:00,
2013-01-14 11:39:00,78.2,63.0,30.18,SSE,152,0.0,0.0,60,0.00,,---,0.00,VWS V14.01,2013-01-14 16:39:00,
2013-01-14 11:44:00,78.1,63.1,30.17,SSE,165,4.3,7.6,60,0.00,,---,0.00,VWS V14.01,2013-01-14 16:44:00,
2013-01-14 11:49:00,78.2,63.5,30.17,SE,145,0.9,2.9,61,0.00,,---,0.00,VWS V14.01,2013-01-14 16:49:00,
2013-01-14 11:54:00,78.8,64.3,30.17,SSW,211,2.8,3.7,61,0.00,,---,0.00,VWS V14.01,2013-01-14 16:54:00,
2013-01-14 11:59:00,79.0,63.0,30.17,SSW,193,0.6,3.7,58,0.00,,---,0.00,VWS V14.01,2013-01-14 16:59:00,
2013-01-14 12:04:00,79.7,63.1,30.17,South,191,0.8,3.4,57,0.00,,---,0.00,VWS V14.01,2013-01-14 17:04:00,
2013-01-14 12:09:00,80.0,63.3,30.17,ESE,121,2.7,8.5,57,0.00,,---,0.00,VWS V14.01,2013-01-14 17:09:00,
2013-01-14 12:14:00,80.2,63.7,30.16,SE,124,7.3,7.3,57,0.00,,---,0.00,VWS V14.01,2013-01-14 17:14:00,
2013-01-14 12:19:00,80.8,62.8,30.16,South,181,9.4,9.4,54,0.00,,---,0.00,VWS V14.01,2013-01-14 17:19:00,
2013-01-14 12:24:00,80.4,62.5,30.16,SSW,201,0.0,1.7,54,0.00,,---,0.00,VWS V14.01,2013-01-14 17:24:00,
2013-01-14 12:29:00,79.2,62.4,30.16,SE,127,5.3,6.1,56,0.00,,---,0.00,VWS V14.01,2013-01-14 17:29:00,
2013-01-14 12:34:00,79.9,63.1,30.16,SSE,152,5.2,6.6,56,0.00,,---,0.00,VWS V14.01,2013-01-14 17:34:00,
2013-01-14 12:39:00,79.5,63.1,30.15,SSE,160,1.7,5.5,57,0.00,,---,0.00,VWS V14.01,2013-01-14 17:39:00,
2013-01-14 12:44:00,79.0,62.8,30.15,SE,132,1.2,2.2,58,0.00,,---,0.00,VWS V14.01,2013-01-14 17:44:00,
2013-01-14 12:49:00,78.9,62.6,30.15,East,98,1.4,3.4,57,0.00,,---,0.00,VWS V14.01,2013-01-14 17:49:00,
2013-01-14 12:54:00,79.7,63.5,30.15,SE,145,2.3,4.7,58,0.00,,---,0.00,VWS V14.01,2013-01-14 17:54:00,
2013-01-14 12:59:00,79.8,62.9,30.15,ESE,111,0.0,0.0,56,0.00,,---,0.00,VWS V14.01,2013-01-14 17:59:00,
2013-01-14 13:04:00,79.5,63.2,30.15,SSW,208,2.3,2.7,57,0.00,,---,0.00,VWS V14.01,2013-01-14 18:04:00,
2013-01-14 13:09:00,80.1,63.0,30.15,SSW,194,4.1,6.0,56,0.00,,---,0.00,VWS V14.01,2013-01-14 18:09:00,
2013-01-14 13:14:00,80.3,62.4,30.14,SE,129,6.2,6.8,54,0.00,,---,0.00,VWS V14.01,2013-01-14 18:14:00,
2013-01-14 13:19:00,80.2,62.5,30.14,ESE,111,5.3,7.8,55,0.00,,---,0.00,VWS V14.01,2013-01-14 18:19:00,
2013-01-14 13:24:00,80.8,62.1,30.14,South,173,3.2,4.1,53,0.00,,---,0.00,VWS V14.01,2013-01-14 18:24:00,
2013-01-14 13:29:00,79.8,61.8,30.14,SSW,198,3.2,3.2,54,0.00,,---,0.00,VWS V14.01,2013-01-14 18:29:00,
2013-01-14 13:34:00,80.3,62.6,30.14,South,174,2.8,3.5,55,0.00,,---,0.00,VWS V14.01,2013-01-14 18:34:00,
2013-01-14 13:39:00,80.5,62.3,30.14,South,181,2.8,7.2,54,0.00,,---,0.00,VWS V14.01,2013-01-14 18:39:00,
2013-01-14 13:44:00,80.0,61.4,30.14,SW,219,5.0,5.0,53,0.00,,---,0.00,VWS V14.01,2013-01-14 18:44:00,
2013-01-14 13:49:00,79.2,60.4,30.13,WSW,255,5.4,5.4,53,0.00,,---,0.00,VWS V14.01,2013-01-14 18:49:00,
2013-01-14 13:54:00,79.4,61.6,30.13,SW,233,7.2,7.5,54,0.00,,---,0.00,VWS V14.01,2013-01-14 18:54:00,
2013-01-14 13:59:00,79.4,61.8,30.14,South,181,4.5,5.9,55,0.00,,---,0.00,VWS V14.01,2013-01-14 18:59:00,
2013-01-14 14:04:00,79.8,62.2,30.13,South,177,0.0,1.8,55,0.00,,---,0.00,VWS V14.01,2013-01-14 19:04:00,
2013-01-14 14:09:00,80.0,61.6,30.13,South,173,5.5,6.8,53,0.00,,---,0.00,VWS V14.01,2013-01-14 19:09:00,
2013-01-14 14:14:00,79.7,61.8,30.13,SSW,204,4.0,4.7,54,0.00,,---,0.00,VWS V14.01,2013-01-14 19:14:00,
2013-01-14 14:19:00,79.5,61.5,30.13,South,183,3.3,3.9,54,0.00,,---,0.00,VWS V14.01,2013-01-14 19:19:00,
2013-01-14 14:24:00,79.1,61.2,30.13,SE,142,3.6,4.5,54,0.00,,---,0.00,VWS V14.01,2013-01-14 19:24:00,
2013-01-14 14:29:00,78.8,61.1,30.13,SSE,153,5.8,5.8,55,0.00,,---,0.00,VWS V14.01,2013-01-14 19:29:00,
2013-01-14 14:34:00,79.0,61.3,30.13,SE,136,2.9,2.9,55,0.00,,---,0.00,VWS V14.01,2013-01-14 19:34:00,
2013-01-14 14:39:00,80.3,61.6,30.13,SE,134,2.2,4.4,53,0.00,,---,0.00,VWS V14.01,2013-01-14 19:39:00,
2013-01-14 14:44:00,80.6,61.2,30.13,South,177,4.1,5.3,52,0.00,,---,0.00,VWS V14.01,2013-01-14 19:44:00,
2013-01-14 14:49:00,80.9,61.9,30.13,SSE,159,0.0,0.6,52,0.00,,---,0.00,VWS V14.01,2013-01-14 19:49:00,
2013-01-14 14:54:00,80.7,60.4,30.13,West,264,4.2,6.9,50,0.00,,---,0.00,VWS V14.01,2013-01-14 19:54:00,
2013-01-14 14:59:00,80.6,60.8,30.13,SW,231,3.0,4.9,51,0.00,,---,0.00,VWS V14.01,2013-01-14 19:59:00,
2013-01-14 15:04:00,80.0,60.7,30.13,SW,218,3.5,5.0,52,0.00,,---,0.00,VWS V14.01,2013-01-14 20:04:00,
2013-01-14 15:09:00,80.0,60.9,30.13,SW,226,2.0,2.4,52,0.00,,---,0.00,VWS V14.01,2013-01-14 20:09:00,
2013-01-14 15:14:00,79.7,61.4,30.13,SW,214,6.2,6.2,54,0.00,,---,0.00,VWS V14.01,2013-01-14 20:14:00,
2013-01-14 15:19:00,79.2,60.9,30.13,SW,214,4.0,4.4,54,0.00,,---,0.00,VWS V14.01,2013-01-14 20:19:00,
2013-01-14 15:24:00,79.1,61.1,30.13,SSW,208,4.0,4.4,54,0.00,,---,0.00,VWS V14.01,2013-01-14 20:24:00,
2013-01-14 15:29:00,79.1,61.3,30.13,SSW,197,0.8,1.7,54,0.00,,---,0.00,VWS V14.01,2013-01-14 20:29:00,
2013-01-14 15:34:00,78.5,61.1,30.13,SSW,202,1.7,1.7,55,0.00,,---,0.00,VWS V14.01,2013-01-14 20:34:00,
2013-01-14 15:39:00,78.8,61.4,30.14,South,180,0.0,0.7,55,0.00,,---,0.00,VWS V14.01,2013-01-14 20:39:00,
2013-01-14 15:44:00,78.7,61.5,30.13,SW,217,3.0,3.0,56,0.00,,---,0.00,VWS V14.01,2013-01-14 20:44:00,
2013-01-14 15:49:00,79.4,61.6,30.14,SSW,200,1.9,2.3,55,0.00,,---,0.00,VWS V14.01,2013-01-14 20:49:00,
2013-01-14 15:54:00,79.4,61.5,30.14,SSW,207,0.6,0.6,54,0.00,,---,0.00,VWS V14.01,2013-01-14 20:54:00,
2013-01-14 15:59:00,80.4,61.9,30.14,SSW,210,4.0,4.3,53,0.00,,---,0.00,VWS V14.01,2013-01-14 20:59:00,
2013-01-14 16:04:00,80.1,61.8,30.14,SSW,200,0.0,0.0,54,0.00,,---,0.00,VWS V14.01,2013-01-14 21:04:00,
2013-01-14 16:09:00,80.0,62.0,30.14,SSW,208,2.8,3.2,54,0.00,,---,0.00,VWS V14.01,2013-01-14 21:09:00,
2013-01-14 16:14:00,79.7,62.1,30.14,SSW,208,1.7,2.0,55,0.00,,---,0.00,VWS V14.01,2013-01-14 21:14:00,
2013-01-14 16:19:00,79.0,62.0,30.14,South,190,0.0,0.0,56,0.00,,---,0.00,VWS V14.01,2013-01-14 21:19:00,
2013-01-14 16:24:00,78.7,62.3,30.14,South,191,0.0,0.0,57,0.00,,---,0.00,VWS V14.01,2013-01-14 21:24:00,
2013-01-14 16:29:00,79.1,62.9,30.14,South,184,0.0,0.0,58,0.00,,---,0.00,VWS V14.01,2013-01-14 21:29:00,
2013-01-14 16:34:00,79.1,62.4,30.14,SSW,204,2.1,2.1,57,0.00,,---,0.00,VWS V14.01,2013-01-14 21:34:00,
2013-01-14 16:39:00,79.9,62.1,30.14,South,186,2.4,3.2,55,0.00,,---,0.00,VWS V14.01,2013-01-14 21:39:00,
2013-01-14 16:44:00,79.1,60.8,30.14,SE,139,7.1,7.1,54,0.00,,---,0.00,VWS V14.01,2013-01-14 21:44:00,
2013-01-14 16:49:00,79.4,61.1,30.14,SSE,159,3.4,4.5,54,0.00,,---,0.00,VWS V14.01,2013-01-14 21:49:00,
2013-01-14 16:54:00,80.0,61.1,30.15,SSE,158,2.0,7.0,53,0.00,,---,0.00,VWS V14.01,2013-01-14 21:54:00,
2013-01-14 16:59:00,80.5,61.4,30.15,ESE,121,3.2,5.0,52,0.00,,---,0.00,VWS V14.01,2013-01-14 21:59:00,
2013-01-14 17:04:00,80.1,61.3,30.15,SSE,153,6.2,7.6,53,0.00,,---,0.00,VWS V14.01,2013-01-14 22:04:00,
2013-01-14 17:09:00,80.1,61.4,30.15,SSE,160,1.2,4.6,53,0.00,,---,0.00,VWS V14.01,2013-01-14 22:09:00,
2013-01-14 17:14:00,80.2,61.8,30.15,SE,128,4.4,7.3,54,0.00,,---,0.00,VWS V14.01,2013-01-14 22:14:00,
2013-01-14 17:19:00,79.1,61.2,30.15,SSE,158,5.8,7.3,54,0.00,,---,0.00,VWS V14.01,2013-01-14 22:19:00,
2013-01-14 17:24:00,79.2,61.7,30.15,SE,141,2.1,3.1,55,0.00,,---,0.00,VWS V14.01,2013-01-14 22:24:00,
2013-01-14 17:29:00,79.2,62.1,30.16,East,82,0.4,3.2,56,0.00,,---,0.00,VWS V14.01,2013-01-14 22:29:00,
2013-01-14 17:34:00,79.1,62.4,30.16,ESE,104,3.7,3.7,57,0.00,,---,0.00,VWS V14.01,2013-01-14 22:34:00,
2013-01-14 17:39:00,78.0,62.3,30.16,East,79,0.8,7.8,59,0.00,,---,0.00,VWS V14.01,2013-01-14 22:39:00,
2013-01-14 17:44:00,78.1,63.1,30.16,SE,145,2.1,2.1,60,0.00,,---,0.00,VWS V14.01,2013-01-14 22:44:00,
2013-01-14 17:49:00,77.2,63.0,30.16,ESE,122,0.7,4.8,62,0.00,,---,0.00,VWS V14.01,2013-01-14 22:49:00,
2013-01-14 17:54:00,77.1,63.3,30.16,SSE,156,1.4,2.5,62,0.00,,---,0.00,VWS V14.01,2013-01-14 22:54:00,
2013-01-14 17:59:00,76.9,63.5,30.16,SE,146,1.4,5.5,63,0.00,,---,0.00,VWS V14.01,2013-01-14 22:59:00,
2013-01-14 18:04:00,76.3,63.4,30.16,SE,139,3.5,5.7,64,0.00,,---,0.00,VWS V14.01,2013-01-14 23:04:00,
2013-01-14 18:09:00,76.8,64.2,30.16,ESE,103,0.9,3.1,65,0.00,,---,0.00,VWS V14.01,2013-01-14 23:09:00,
2013-01-14 18:14:00,76.4,64.1,30.17,ESE,122,2.5,5.3,66,0.00,,---,0.00,VWS V14.01,2013-01-14 23:14:00,
2013-01-14 18:19:00,76.1,64.1,30.17,East,101,2.1,2.9,66,0.00,,---,0.00,VWS V14.01,2013-01-14 23:19:00,
2013-01-14 18:24:00,75.7,64.2,30.17,SE,128,4.7,5.9,67,0.00,,---,0.00,VWS V14.01,2013-01-14 23:24:00,
2013-01-14 18:29:00,75.4,64.1,30.17,ESE,121,2.5,2.7,68,0.00,,---,0.00,VWS V14.01,2013-01-14 23:29:00,
2013-01-14 18:34:00,74.9,64.1,30.17,SE,135,2.7,8.3,69,0.00,,---,0.00,VWS V14.01,2013-01-14 23:34:00,
2013-01-14 18:39:00,74.6,64.1,30.17,SE,124,2.1,5.5,70,0.00,,---,0.00,VWS V14.01,2013-01-14 23:39:00,
2013-01-14 18:44:00,74.9,64.6,30.17,SE,129,4.5,4.5,70,0.00,,---,0.00,VWS V14.01,2013-01-14 23:44:00,
2013-01-14 18:49:00,74.1,64.1,30.17,East,89,0.5,2.6,71,0.00,,---,0.00,VWS V14.01,2013-01-14 23:49:00,
2013-01-14 18:54:00,73.5,63.7,30.17,East,97,3.0,6.2,71,0.00,,---,0.00,VWS V14.01,2013-01-14 23:54:00,
2013-01-14 18:59:00,74.3,64.6,30.17,SE,127,2.1,3.2,72,0.00,,---,0.00,VWS V14.01,2013-01-14 23:59:00,
2013-01-14 19:04:00,73.3,63.8,30.17,East,91,1.1,3.6,72,0.00,,---,0.00,VWS V14.01,2013-01-15 00:04:00,
2013-01-14 19:09:00,73.3,64.0,30.17,ESE,108,0.5,2.1,73,0.00,,---,0.00,VWS V14.01,2013-01-15 00:09:00,
2013-01-14 19:14:00,73.3,64.1,30.17,ESE,114,0.8,1.6,73,0.00,,---,0.00,VWS V14.01,2013-01-15 00:14:00,
2013-01-14 19:19:00,73.0,64.0,30.17,East,101,2.5,2.8,74,0.00,,---,0.00,VWS V14.01,2013-01-15 00:19:00,
2013-01-14 19:24:00,73.3,64.5,30.18,SE,139,1.3,4.6,74,0.00,,---,0.00,VWS V14.01,2013-01-15 00:24:00,
2013-01-14 19:28:00,72.5,63.9,30.18,ESE,103,3.0,3.0,74,0.00,,---,0.00,VWS V14.01,2013-01-15 00:28:00,
2013-01-14 19:33:00,72.1,63.7,30.17,SSE,159,1.6,6.3,75,0.00,,---,0.00,VWS V14.01,2013-01-15 00:33:00,
2013-01-14 19:38:00,72.6,64.3,30.17,SE,142,5.0,5.2,75,0.00,,---,0.00,VWS V14.01,2013-01-15 00:38:00,
2013-01-14 19:43:00,72.5,64.3,30.17,SE,124,3.6,5.9,76,0.00,,---,0.00,VWS V14.01,2013-01-15 00:43:00,
2013-01-14 19:48:00,72.2,64.1,30.17,SE,131,3.5,3.5,76,0.00,,---,0.00,VWS V14.01,2013-01-15 00:48:00,
2013-01-14 19:53:00,72.2,64.3,30.17,ESE,122,3.3,4.0,76,0.00,,---,0.00,VWS V14.01,2013-01-15 00:53:00,
2013-01-14 19:58:00,71.5,63.8,30.17,SE,134,0.9,7.0,77,0.00,,---,0.00,VWS V14.01,2013-01-15 00:58:00,
2013-01-14 20:03:00,71.8,64.3,30.17,SE,135,8.6,9.1,77,0.00,,---,0.00,VWS V14.01,2013-01-15 01:03:00,
2013-01-14 20:08:00,71.9,64.4,30.17,SE,132,1.6,6.1,77,0.00,,---,0.00,VWS V14.01,2013-01-15 01:08:00,
2013-01-14 20:13:00,71.8,64.4,30.17,East,89,0.4,3.1,78,0.00,,---,0.00,VWS V14.01,2013-01-15 01:13:00,
2013-01-14 20:18:00,71.4,64.1,30.17,ESE,118,6.7,8.0,78,0.00,,---,0.00,VWS V14.01,2013-01-15 01:18:00,
2013-01-14 20:23:00,71.5,64.4,30.17,ESE,117,3.7,4.4,78,0.00,,---,0.00,VWS V14.01,2013-01-15 01:23:00,
2013-01-14 20:28:00,71.0,64.1,30.17,SSE,148,2.9,5.7,79,0.00,,---,0.00,VWS V14.01,2013-01-15 01:28:00,
2013-01-14 20:33:00,71.0,64.3,30.17,SE,135,8.1,9.5,80,0.00,,---,0.00,VWS V14.01,2013-01-15 01:33:00,
2013-01-14 20:38:00,71.2,64.7,30.17,South,180,2.4,6.6,80,0.00,,---,0.00,VWS V14.01,2013-01-15 01:38:00,
2013-01-14 20:43:00,71.2,64.9,30.17,South,169,5.7,7.5,80,0.00,,---,0.00,VWS V14.01,2013-01-15 01:43:00,
2013-01-14 20:48:00,71.2,65.0,30.17,SSE,149,4.5,5.0,81,0.00,,---,0.00,VWS V14.01,2013-01-15 01:48:00,
2013-01-14 20:53:00,71.2,65.1,30.17,ESE,111,6.2,6.8,81,0.00,,---,0.00,VWS V14.01,2013-01-15 01:53:00,
2013-01-14 20:58:00,70.5,64.6,30.17,SE,138,5.3,8.1,82,0.00,,---,0.00,VWS V14.01,2013-01-15 01:58:00,
2013-01-14 21:03:00,70.5,64.7,30.17,SSE,152,4.3,10.1,82,0.00,,---,0.00,VWS V14.01,2013-01-15 02:03:00,
2013-01-14 21:08:00,70.8,65.2,30.17,SE,139,3.8,7.4,82,0.00,,---,0.00,VWS V14.01,2013-01-15 02:08:00,
2013-01-14 21:13:00,71.1,65.7,30.17,SSE,159,4.0,9.4,83,0.00,,---,0.00,VWS V14.01,2013-01-15 02:13:00,
2013-01-14 21:18:00,71.1,65.6,30.17,ESE,114,0.0,4.3,83,0.00,,---,0.00,VWS V14.01,2013-01-15 02:18:00,
2013-01-14 21:23:00,70.9,65.6,30.17,SE,131,2.2,2.6,83,0.00,,---,0.00,VWS V14.01,2013-01-15 02:23:00,
2013-01-14 21:28:00,70.1,64.9,30.17,ESE,121,2.7,6.6,84,0.00,,---,0.00,VWS V14.01,2013-01-15 02:28:00,
2013-01-14 21:33:00,70.3,65.2,30.17,East,82,0.0,1.2,84,0.00,,---,0.00,VWS V14.01,2013-01-15 02:33:00,
2013-01-14 21:38:00,70.0,65.1,30.17,SE,127,0.9,2.7,84,0.00,,---,0.00,VWS V14.01,2013-01-15 02:38:00,
2013-01-14 21:43:00,69.6,64.7,30.17,SE,138,1.6,5.9,84,0.00,,---,0.00,VWS V14.01,2013-01-15 02:43:00,
2013-01-14 21:48:00,70.8,66.0,30.17,SSE,162,3.7,4.0,85,0.00,,---,0.00,VWS V14.01,2013-01-15 02:48:00,
2013-01-14 21:53:00,70.6,65.8,30.17,East,101,0.0,4.6,85,0.00,,---,0.00,VWS V14.01,2013-01-15 02:53:00,
2013-01-14 21:58:00,70.1,65.3,30.17,SSE,148,2.5,4.6,85,0.00,,---,0.00,VWS V14.01,2013-01-15 02:58:00,
2013-01-14 22:03:00,70.6,65.9,30.17,SE,138,2.2,2.2,85,0.00,,---,0.00,VWS V14.01,2013-01-15 03:03:00,
2013-01-14 22:08:00,70.8,66.2,30.17,SE,146,0.0,0.0,86,0.00,,---,0.00,VWS V14.01,2013-01-15 03:08:00,
2013-01-14 22:13:00,70.5,66.1,30.17,South,170,4.3,7.6,86,0.00,,---,0.00,VWS V14.01,2013-01-15 03:13:00,
2013-01-14 22:18:00,70.3,65.9,30.17,SE,132,3.5,5.7,86,0.00,,---,0.00,VWS V14.01,2013-01-15 03:18:00,
2013-01-14 22:23:00,70.6,66.3,30.17,South,179,0.9,5.1,86,0.00,,---,0.00,VWS V14.01,2013-01-15 03:23:00,
2013-01-14 22:28:00,70.3,66.2,30.17,SSE,156,2.9,4.5,87,0.00,,---,0.00,VWS V14.01,2013-01-15 03:28:00,
2013-01-14 22:33:00,70.5,66.4,30.17,SE,141,2.9,3.3,87,0.00,,---,0.00,VWS V14.01,2013-01-15 03:33:00,
2013-01-14 22:38:00,70.1,66.2,30.17,East,91,0.6,2.7,87,0.00,,---,0.00,VWS V14.01,2013-01-15 03:38:00,
2013-01-14 22:43:00,70.1,66.2,30.17,SSE,160,3.7,4.7,88,0.00,,---,0.00,VWS V14.01,2013-01-15 03:43:00,
2013-01-14 22:48:00,70.1,66.2,30.17,South,174,1.7,2.9,88,0.00,,---,0.00,VWS V14.01,2013-01-15 03:48:00,
2013-01-14 22:53:00,70.6,66.8,30.17,SSE,155,1.6,2.5,88,0.00,,---,0.00,VWS V14.01,2013-01-15 03:53:00,
2013-01-14 22:58:00,70.4,66.7,30.17,South,169,1.1,4.7,88,0.00,,---,0.00,VWS V14.01,2013-01-15 03:58:00,
2013-01-14 23:03:00,69.8,66.2,30.17,ESE,121,4.8,5.0,88,0.00,,---,0.00,VWS V14.01,2013-01-15 04:03:00,
2013-01-14 23:08:00,70.4,66.8,30.17,SSE,167,3.1,7.1,88,0.00,,---,0.00,VWS V14.01,2013-01-15 04:08:00,
2013-01-14 23:13:00,70.4,66.8,30.17,SE,139,1.4,2.6,88,0.00,,---,0.00,VWS V14.01,2013-01-15 04:13:00,
2013-01-14 23:18:00,69.9,66.3,30.16,ESE,120,2.0,7.3,88,0.00,,---,0.00,VWS V14.01,2013-01-15 04:18:00,
2013-01-14 23:23:00,69.6,66.1,30.16,East,98,3.4,6.3,89,0.00,,---,0.00,VWS V14.01,2013-01-15 04:23:00,
2013-01-14 23:28:00,70.5,67.0,30.16,SSE,149,4.8,5.3,89,0.00,,---,0.00,VWS V14.01,2013-01-15 04:28:00,
2013-01-14 23:33:00,70.1,66.6,30.16,South,174,2.2,6.5,88,0.00,,---,0.00,VWS V14.01,2013-01-15 04:33:00,
2013-01-14 23:38:00,70.4,66.9,30.16,SSE,159,5.0,7.8,89,0.00,,---,0.00,VWS V14.01,2013-01-15 04:38:00,
2013-01-14 23:43:00,70.0,66.5,30.16,SE,145,1.7,4.3,89,0.00,,---,0.00,VWS V14.01,2013-01-15 04:43:00,
2013-01-14 23:48:00,70.2,66.8,30.16,SSE,148,2.0,3.5,89,0.00,,---,0.00,VWS V14.01,2013-01-15 04:48:00,
2013-01-14 23:53:00,70.2,66.8,30.16,SSW,195,2.1,3.1,89,0.00,,---,0.00,VWS V14.01,2013-01-15 04:53:00,
2013-01-14 23:58:00,70.3,66.9,30.16,SE,146,2.9,5.4,89,0.00,,---,0.00,VWS V14.01,2013-01-15 04:58:00,